This is the latest recevied weather packets stored in our database for station/object JO1YDG-13. If no packets are shown the sender has not sent any weather packets the latest 10 day(s).
| Time | Temp. | Humidity | Pressure | Rain* | Wind** | Luminosity | Snow |
|---|---|---|---|---|---|---|---|
| 1777457166 | 18.89° C | 61% | 983.7 hPa | 0 mm | - | - | - |
| 1777456868 | 18.89° C | 60% | 983.7 hPa | 0 mm | - | - | - |
| 1777456568 | 18.89° C | 59% | 983.7 hPa | 0 mm | - | - | - |
| 1777456268 | 19.44° C | 58% | 983.7 hPa | 0 mm | - | - | - |
| 1777455967 | 19.44° C | 58% | 983.7 hPa | 0 mm | - | - | - |
| 1777455666 | 19.44° C | 55% | 983.7 hPa | 0 mm | - | - | - |
| 1777455368 | 19.44° C | 58% | 983.4 hPa | 0 mm | - | - | - |
| 1777455068 | 19.44° C | 61% | 983.4 hPa | 0 mm | - | - | - |
| 1777454767 | 19.44° C | 62% | 983.4 hPa | 0 mm | - | - | - |
| 1777454467 | 19.44° C | 62% | 983.4 hPa | 0 mm | - | - | - |
| 1777454167 | 19.44° C | 65% | 983.4 hPa | 0 mm | - | - | - |
| 1777453867 | 19.44° C | 64% | 982.9 hPa | 0 mm | - | - | - |
| 1777453567 | 20° C | 61% | 982.9 hPa | 0 mm | - | - | - |
| 1777453266 | 20° C | 62% | 982.5 hPa | 0 mm | - | - | - |
| 1777452968 | 20.56° C | 51% | 982.5 hPa | 0 mm | - | - | - |
| 1777452667 | 20.56° C | 48% | 982.5 hPa | 0 mm | - | - | - |
| 1777452366 | 20.56° C | 41% | 982.6 hPa | 0 mm | - | - | - |
| 1777452066 | 20.56° C | 53% | 982.6 hPa | 0 mm | - | - | - |
| 1777451766 | 20.56° C | 45% | 982.6 hPa | 0 mm | - | - | - |
| 1777451467 | 20.56° C | 41% | 982.6 hPa | 0 mm | - | - | - |
| 1777451168 | 20.56° C | 50% | 982.5 hPa | 0 mm | - | - | - |
| 1777450868 | 21.11° C | 49% | 982.5 hPa | 0 mm | - | - | - |
| 1777450567 | 21.11° C | 45% | 982.5 hPa | 0 mm | - | - | - |
| 1777450267 | 21.11° C | 39% | 982.4 hPa | 0 mm | - | - | - |
| 1777449967 | 21.11° C | 33% | 982.4 hPa | 0 mm | - | - | - |
* Rain latest hour (hover to see other rain measurements)
** Current wind speed in m/s (hover to see current wind gust speed)